EW9186 Weather Reports


Display with metric or nautical units.
time (UTC)temp
F
wind
direction
speed
MPH
gust
MPH
rain 1hr
in
rain 24hr
in
rain mn
in
humidity
%
barometer
mb
20230129214518 80 0.0 0.0 0.00 0.00 0.00 61 1014.0
20230129213017 80 0.0 0.0 0.00 0.00 0.00 60 1013.8
20230129211515 80 0.0 0.0 0.00 0.00 0.00 62 1013.8
20230129210014 80 0.0 0.0 0.00 0.00 0.00 60 1014.0
20230129204523 79 0.0 0.0 0.00 0.00 0.00 61 1014.2
20230129203012 79 0.0 0.0 0.00 0.00 0.00 65 1014.0
20230129201505 78 0.0 0.0 0.00 0.00 0.00 67 1014.1
20230129200003 77 0.0 0.0 0.00 0.00 0.00 69 1014.2
20230129194557 76 0.0 0.0 0.00 0.00 0.00 68 1014.1
20230129193053 74 0.0 0.0 0.00 0.00 0.00 73 1014.3
20230129191601 74 0.0 0.0 0.00 0.00 0.00 77 1014.9
20230129190059 73 0.0 0.0 0.00 0.00 0.00 81 1015.3
20230129184623 72 0.0 0.0 0.00 0.00 0.00 82 1015.7
20230129183040 72 0.0 0.0 0.00 0.00 0.00 83 1016.4
20230129181536 71 0.0 0.0 0.00 0.00 0.00 88 1016.7
20230129180038 70 0.0 0.0 0.00 0.00 0.00 88 1017.1
20230129174531 70 0.0 0.0 0.00 0.00 0.00 92 1017.3
20230129173029 69 0.0 0.0 0.00 0.00 0.00 94 1017.3
20230129171539 68 0.0 0.0 0.00 0.00 0.00 95 1017.5
20230129170025 68 0.0 0.0 0.00 0.00 0.00 96 1017.7
20230129164523 68 0.0 0.0 0.00 0.00 0.00 97 1017.9
20230129163021 67 0.0 0.0 0.00 0.00 0.00 97 1018.0
20230129161519 66 0.0 0.0 0.00 0.00 0.00 97 1017.9
20230129160017 66 0.0 0.0 0.00 0.00 0.00 97 1018.2
20230129154516 65 0.0 0.0 0.00 0.00 0.00 97 1017.8
20230129153013 65 0.0 0.0 0.00 0.00 0.00 97 1017.8
20230129151513 65 0.0 0.0 0.00 0.00 0.00 96 1017.4
20230129150111 64 0.0 0.0 0.00 0.00 0.00 97 1018.2
20230129144507 64 0.0 0.0 0.00 0.00 0.00 96 1017.6
20230129143011 64 0.0 0.0 0.00 0.00 0.00 96 1016.9
20230129141506 63 0.0 0.0 0.00 0.00 0.00 97 1017.3
20230129140013 63 0.0 0.0 0.00 0.00 0.00 96 1016.5
20230129134506 63 0.0 0.0 0.00 0.00 0.00 96 1016.5
20230129133007 63 0.0 0.0 0.00 0.00 0.00 96 1016.6
20230129131507 63 0.0 0.0 0.00 0.00 0.00 96 1016.7
20230129130007 64 0.0 0.0 0.00 0.00 0.00 96 1016.8
20230129124504 63 0.0 0.0 0.00 0.00 0.00 96 1016.5
20230129123004 64 0.0 0.0 0.00 0.00 0.00 96 1016.4
20230129121502 63 0.0 0.0 0.00 0.00 0.00 96 1016.3
20230129120103 63 0.0 0.0 0.00 0.00 0.00 96 1016.3
20230129114608 63 0.0 0.0 0.00 0.00 0.00 96 1016.3
20230129113057 62 0.0 0.0 0.00 0.00 0.00 96 1016.3
20230129111609 62 0.0 0.0 0.00 0.00 0.00 96 1016.0
20230129110105 62 0.0 0.0 0.00 0.00 0.00 96 1015.9
20230129104621 62 0.0 0.0 0.00 0.00 0.00 96 1016.0
20230129103052 62 0.0 0.0 0.00 0.00 0.00 96 1015.8
20230129101559 62 0.0 0.0 0.00 0.00 0.00 96 1016.0
20230129100100 61 0.0 0.0 0.00 0.00 0.00 96 1016.2
20230129094550 61 0.0 0.0 0.00 0.00 0.00 96 1016.1
20230129093059 61 0.0 0.0 0.00 0.00 0.00 96 1016.0
20230129091608 61 0.0 0.0 0.00 0.00 0.00 96 1016.1
20230129090053 61 0.0 0.0 0.00 0.00 0.00 95 1016.2
20230129084544 61 0.0 0.0 0.00 0.00 0.00 95 1016.3
20230129083042 61 0.0 0.0 0.00 0.00 0.00 96 1016.3
20230129081541 61 0.0 0.0 0.00 0.00 0.00 96 1016.7
20230129080041 60 0.0 0.0 0.00 0.00 0.00 95 1016.8
20230129074541 60 0.0 0.0 0.00 0.00 0.00 95 1016.9
20230129073037 60 0.0 0.0 0.00 0.00 0.00 96 1017.0
20230129071536 60 0.0 0.0 0.00 0.00 0.00 95 1017.0
20230129070034 60 0.0 0.0 0.00 0.00 0.00 95 1017.1
20230129064537 60 0.0 0.0 0.00 0.00 0.00 95 1017.0
20230129063031 60 0.0 0.0 0.00 0.00 0.00 95 1017.4
20230129061529 60 0.0 0.0 0.00 0.00 0.00 95 1017.7
20230129060033 60 0.0 0.0 0.00 0.00 0.00 95 1017.9
20230129054528 60 0.0 0.0 0.00 0.00 0.00 95 1018.1
20230129053032 60 0.0 0.0 0.00 0.00 0.00 95 1018.2
20230129051534 60 0.0 0.0 0.00 0.00 0.00 95 1018.4
20230129050026 60 0.0 0.0 0.00 0.00 0.00 95 1018.5
20230129044525 59 0.0 0.0 0.00 0.00 0.00 95 1018.5
20230129043025 60 0.0 0.0 0.00 0.00 0.00 95 1018.5
20230129041524 60 0.0 0.0 0.00 0.00 0.00 95 1018.5
20230129040024 59 0.0 0.0 0.00 0.00 0.00 95 1018.3
20230129034523 59 0.0 0.0 0.00 0.00 0.00 95 1018.6
20230129033026 59 0.0 0.0 0.00 0.00 0.00 94 1018.7
20230129031527 59 0.0 0.0 0.00 0.00 0.00 94 1018.6
20230129030029 60 0.0 0.0 0.00 0.00 0.00 94 1018.3
20230129024520 60 0.0 0.0 0.00 0.00 0.00 94 1018.7
20230129023020 60 0.0 0.0 0.00 0.00 0.00 94 1018.7
20230129021522 59 0.0 0.0 0.00 0.00 0.00 94 1018.4
20230129020019 59 0.0 0.0 0.00 0.00 0.00 94 1017.9
20230129014518 59 0.0 0.0 0.00 0.00 0.00 94 1018.0
20230129013026 60 0.0 0.0 0.00 0.00 0.00 94 1017.7
20230129011518 60 0.0 0.0 0.00 0.00 0.00 94 1017.5
20230129010017 60 0.0 0.0 0.00 0.00 0.00 94 1017.3
20230129004521 60 0.0 0.0 0.00 0.00 0.00 94 1017.2
20230129003016 60 0.0 0.0 0.00 0.00 0.00 94 1017.3
20230129001527 60 0.0 0.0 0.00 0.00 0.00 94 1017.4
20230129000016 60 0.0 0.0 0.00 0.00 0.00 94 1017.4
20230128234533 60 0.0 0.0 0.00 0.00 0.00 94 1017.4
20230128233030 60 0.0 0.0 0.00 0.00 0.00 94 1017.3
20230128231521 60 0.0 0.0 0.00 0.00 0.00 94 1017.4
20230128230025 60 0.0 0.0 0.00 0.00 0.00 94 1017.2
20230128224517 60 0.0 0.0 0.00 0.00 0.00 94 1017.2
20230128223012 60 0.0 0.0 0.00 0.00 0.00 94 1017.1
20230128221512 60 0.0 0.0 0.00 0.00 0.00 94 1017.1
20230128220024 60 0.0 0.0 0.00 0.00 0.00 94 1017.1